Tracking 30696 objects as of 15-Jun-2025
HD Live streaming from Space Station
objects crossing your sky now

STARLINK-3882

Track STARLINK-3882 now!
10-day predictions
STARLINK-3882 is classified as:


NORAD ID: 52475
Int'l Code: 2022-049AA
Perigee: 546.3 km
Apogee: 547.5 km
Inclination: 53.2 °
Period: 95.4 minutes
Semi major axis: 6917 km
RCS: Unknown
Launch date: May 6, 2022
Source: United States (US)
Launch site: AIR FORCE EASTERN TEST RANGE (AFETR)
Your satellite tracking list
Your tracking list is empty




NASA's NSSDC Master Catalog

Two Line Element Set (TLE):
1 52475U 22049AA  25166.31642183 -.00000435  00000-0 -92515-5 0  9999
2 52475  53.2163 179.6275 0000908  84.2011 275.9085 15.08838990172046
Source of the keplerian elements: AFSPC